This demonstration page uses our WeatherBlox Daily Observations layout. Learn more.

Left ArrowRight Arrow

Hourly Observations for September 24, 2022

Temp ( °F °C ) Dew Point ( °F °C ) Humidity (%) Winds ( mph kmh ) Pressure ( in mb ) Visibility ( mi km ) Precip ( " mm )
12:15 am 00:15 Clear 54 12 51 10.3 89 89 WNW 3 6 29.98 1015 10 16 0.00 0.00
12:35 am 00:35 Clear 55 12.7 49 9.2 79 79 WNW 6 9 29.97 1015 10 16 0.00 0.00
12:55 am 00:55 Clear 55 12.9 47 8.2 73 73 Calm 29.98 1015 10 16 0.00 0.00
1:15 am 01:15 Clear 55 12.5 47 8.6 77 77 W 3 6 29.98 1015 10 16 0.00 0.00
1:35 am 01:35 Clear 53 11.7 48 8.8 82 82 SSW 5 7 29.99 1016 10 16 0.00 0.00
1:55 am 01:55 Clear 54 12.3 46 7.7 73 73 SW 7 11 29.98 1015 10 16 0.00 0.00
2:15 am 02:15 Clear 55 12.9 45 7.4 69 69 SW 8 13 29.98 1015 10 16 0.00 0.00
2:35 am 02:35 Clear 56 13.3 45 7 66 66 Calm 29.97 1015 10 16 0.00 0.00
2:55 am 02:55 Clear 53 11.5 46 7.6 77 77 N 5 7 29.99 1016 10 16 0.00 0.00
3:15 am 03:15 Clear 50 10.2 46 7.5 83 83 NW 3 6 30.00 1016 10 16 0.00 0.00
3:35 am 03:35 Clear 53 11.6 45 7.1 74 74 Calm 29.99 1016 10 16 0.00 0.00
3:55 am 03:55 Clear 53 11.4 45 7.2 75 75 WNW 3 6 29.99 1016 10 16 0.00 0.00
4:15 am 04:15 Clear 53 11.6 45 7.1 74 74 W 3 6 29.99 1016 10 16 0.00 0.00
4:35 am 04:35 Clear 53 11.5 45 7.2 75 75 WNW 3 6 29.99 1016 10 16 0.00 0.00
4:55 am 04:55 Clear 51 10.8 45 7 77 77 NW 3 6 30.00 1016 10 16 0.00 0.00
5:15 am 05:15 Clear 51 10.5 45 7 79 79 Calm 30.00 1016 10 16 0.00 0.00
5:35 am 05:35 Clear 49 9.2 44 6.9 86 86 NNW 3 6 30.02 1017 10 16 0.00 0.00
5:55 am 05:55 Clear 49 9.5 45 7 84 84 Calm 30.02 1016 10 16 0.00 0.00
6:15 am 06:15 Clear 51 10.3 45 7.1 81 81 Calm 30.01 1016 10 16 0.00 0.00
6:35 am 06:35 Clear 49 9.5 45 7 84 84 NW 3 6 30.03 1017 10 16 0.00 0.00
6:55 am 06:55 Clear 51 10.3 44 6.8 79 79 WNW 3 6 30.02 1017 10 16 0.00 0.00
7:15 am 07:15 Clear 49 9.2 44 6.7 84 84 WNW 3 6 30.03 1017 10 16 0.00 0.00
7:35 am 07:35 Sunny 49 9.5 44 6.5 82 82 NW 3 6 30.04 1017 10 16 0.00 0.00
7:55 am 07:55 Sunny 50 9.9 44 6.8 81 81 WSW 3 6 30.05 1017 10 16 0.00 0.00
8:15 am 08:15 Sunny 52 10.9 45 7.3 78 78 W 3 6 30.04 1017 10 16 0.00 0.00
8:35 am 08:35 Sunny 54 12.2 47 8.5 78 78 Calm 30.02 1017 10 16 0.00 0.00
8:55 am 08:55 Sunny 55 12.6 48 8.9 78 78 SW 5 7 30.02 1017 10 16 0.00 0.00
9:15 am 09:15 Sunny 58 14.2 49 9.5 73 73 W 3 6 30.01 1016 10 16 0.00 0.00
9:35 am 09:35 Sunny 62 16.8 49 9.4 62 62 Calm 29.99 1016 10 16 0.00 0.00
9:55 am 09:55 Sunny 66 18.8 49 9.3 54 54 WNW 3 6 29.98 1015 10 16 0.00 0.00
10:15 am 10:15 Sunny 68 19.9 50 10 53 53 WNW 5 7 29.97 1015 10 16 0.00 0.00
10:35 am 10:35 Sunny 70 21.1 50 9.9 49 49 WNW 5 7 29.97 1015 10 16 0.00 0.00
10:55 am 10:55 Sunny 72 22.3 49 9.3 44 44 WNW 6 9 29.96 1014 10 16 0.00 0.00
11:15 am 11:15 Sunny 75 23.7 48 8.9 39 39 NW 7 11 29.95 1014 10 16 0.00 0.00
11:35 am 11:35 Sunny 76 24.3 45 7.2 33 33 W 5 7 29.93 1014 10 16 0.00 0.00
11:55 am 11:55 Sunny 77 25.1 44 6.7 31 31 NW 3 6 29.93 1013 10 16 0.00 0.00
12:15 pm 12:15 Sunny 78 25.6 43 6 28 28 Calm 29.91 1013 10 16 0.00 0.00
12:35 pm 12:35 Sunny 79 26.3 42 5.4 26 26 Calm 29.91 1013 10 16 0.00 0.00
12:55 pm 12:55 Sunny 80 26.7 44 6.7 28 28 NW 3 6 29.89 1012 10 16 0.00 0.00
1:15 pm 13:15 Sunny 80 26.7 42 5.5 26 26 WSW 3 6 29.89 1012 10 16 0.00 0.00
1:35 pm 13:35 Sunny 81 27.2 42 5.8 26 26 Calm 29.88 1012 10 16 0.00 0.00
1:55 pm 13:55 Sunny 81 27.4 43 6.2 26 26 N 5 7 29.87 1011 10 16 0.00 0.00
2:15 pm 14:15 Sunny 82 27.8 42 5.7 25 25 WNW 7 11 29.86 1011 10 16 0.00 0.00
2:35 pm 14:35 Sunny 82 27.8 41 5.1 24 24 WNW 7 11 29.85 1011 10 16 0.00 0.00
2:55 pm 14:55 Sunny 82 27.9 43 6.3 25 25 WNW 7 11 29.85 1011 10 16 0.00 0.00
3:15 pm 15:15 Sunny 83 28.3 43 6.1 24 24 NW 10 17 29.84 1011 10 16 0.00 0.00
3:35 pm 15:35 Sunny 83 28.3 43 6.1 24 24 NNW 6 9 29.84 1011 10 16 0.00 0.00
3:55 pm 15:55 Sunny 83 28.4 44 6.8 26 26 NW 9 15 29.83 1010 10 16 0.00 0.00
4:15 pm 16:15 Sunny 83 28.3 42 5.3 23 23 Calm 29.83 1010 10 16 0.00 0.00
4:35 pm 16:35 Sunny 83 28.5 42 5.5 23 23 WNW 3 6 29.82 1010 10 16 0.00 0.00
4:55 pm 16:55 Sunny 83 28.5 42 5.6 23 23 WSW 6 9 29.82 1010 10 16 0.00 0.00
5:15 pm 17:15 Sunny 83 28.5 44 6.5 25 25 NNW 5 7 29.82 1010 10 16 0.00 0.00
5:35 pm 17:35 Sunny 83 28.4 44 6.9 26 26 W 7 11 29.82 1010 10 16 0.00 0.00
5:55 pm 17:55 Sunny 82 27.8 45 7.3 27 27 WSW 7 11 29.83 1010 10 16 0.00 0.00
6:15 pm 18:15 Sunny 82 27.5 45 7 27 27 WSW 6 9 29.83 1010 10 16 0.00 0.00
6:35 pm 18:35 Sunny 80 26.8 47 8.5 31 31 WSW 3 6 29.83 1010 10 16 0.00 0.00
6:55 pm 18:55 Sunny 79 25.9 49 9.3 35 35 SW 3 6 29.84 1011 10 16 0.00 0.00
7:15 pm 19:15 Sunny 78 25.3 49 9.4 37 37 Calm 29.84 1011 10 16 0.00 0.00
7:35 pm 19:35 Clear 71 21.7 52 11.1 51 51 NW 5 7 29.88 1012 10 16 0.00 0.00
7:55 pm 19:55 Clear 73 22.5 49 9.4 43 43 NW 3 6 29.89 1012 10 16 0.00 0.00
8:15 pm 20:15 Clear 72 22.1 49 9.4 44 44 Calm 29.89 1012 10 16 0.00 0.00
8:35 pm 20:35 Clear 67 19.2 51 10.7 58 58 N 16 26 29.94 1014 10 16 0.00 0.00
8:55 pm 20:55 Clear 65 18.2 48 9.1 55 55 NNE 9 15 29.97 1015 10 16 0.00 0.00
9:15 pm 21:15 Clear 64 17.8 46 8 53 53 NNE 9 15 29.99 1015 10 16 0.00 0.00
9:35 pm 21:35 Clear 62 16.6 46 8 57 57 NNE 7 11 30.02 1016 10 16 0.00 0.00
9:55 pm 21:55 Clear 59 15.1 47 8.3 64 64 N 9 15 30.04 1017 10 16 0.00 0.00
10:15 pm 22:15 Clear 59 15 46 8 63 63 N 8 13 30.04 1017 10 16 0.00 0.00
10:35 pm 22:35 Clear 58 14.6 46 7.5 62 62 NNE 10 17 30.05 1018 10 16 0.00 0.00
10:55 pm 22:55 Clear 56 13.5 46 7.9 69 69 N 8 13 30.06 1018 10 16 0.00 0.00
11:15 pm 23:15 Clear 55 12.7 47 8.2 74 74 N 8 13 30.08 1019 10 16 0.00 0.00
11:35 pm 23:35 Clear 55 12.6 46 7.9 73 73 N 8 13 30.08 1019 10 16 0.00 0.00
11:55 pm 23:55 Clear 55 12.9 46 7.6 70 70 N 6 9 30.09 1019 10 16 0.00 0.00

Powered by AerisWeather